VK4VS Weather Reports


Display with metric or nautical units.
time (UTC)temp
F
wind
direction
speed
MPH
gust
MPH
rain 1hr
in
rain 24hr
in
rain mn
in
humidity
%
barometer
mb
20260505123054 59 123 6.0 10.0 0.00 0.01 0.01 96 1018.4
20260505120053 60 122 5.0 11.0 0.00 0.01 0.01 95 1018.4
20260505113053 60 126 6.0 12.0 0.00 0.01 0.01 92 1018.5
20260505100053 62 133 3.0 9.0 0.00 0.01 0.01 87 1018.3
20260505093053 62 135 4.0 8.0 0.00 0.01 0.01 85 1018.1
20260505090053 62 147 3.0 7.0 0.00 0.01 0.01 83 1018.0
20260505083053 63 160 5.0 11.0 0.00 0.01 0.01 83 1017.4
20260505080053 64 163 4.0 10.0 0.00 0.01 0.01 81 1017.3
20260505073053 65 171 2.0 5.0 0.00 0.01 0.01 77 1016.9
20260505070053 68 178 2.0 6.0 0.00 0.01 0.01 70 1016.8
20260505063053 68 173 1.0 6.0 0.00 0.01 0.01 68 1016.3
20260505060053 69 215 2.0 7.0 0.00 0.01 0.01 66 1016.3
20260505053053 70 322 1.0 5.0 0.00 0.01 0.01 64 1015.9
20260505040053 71 289 1.0 6.0 0.00 0.01 0.01 64 1015.6
20260505033053 70 296 1.0 4.0 0.00 0.01 0.01 64 1015.8
20260505030053 72 136 2.0 9.0 0.00 0.01 0.01 62 1016.0
20260505023053 70 298 2.0 7.0 0.00 0.01 0.01 65 1016.3
20260505020053 70 197 3.0 8.0 0.00 0.01 0.01 68 1016.7
20260505013053 70 199 2.0 6.0 0.00 0.01 0.01 68 1017.1
20260505010053 70 216 2.0 7.0 0.00 0.01 0.01 68 1017.5
20260505003054 69 164 1.0 5.0 0.00 0.01 0.01 74 1017.8
20260505000053 67 264 4.0 9.0 0.00 0.01 0.01 80 1018.1
20260504233053 62 274 2.0 7.0 0.00 0.01 0.01 98 1018.4
20260504230053 60 211 0.0 4.0 0.00 0.01 0.01 99 1018.5
20260504223054 60 109 0.0 1.0 0.00 0.01 0.01 99 1018.5
20260504220053 59 0 0.0 0.0 0.00 0.01 0.01 100 1018.3
20260504213053 56 0 0.0 0.0 0.00 0.01 0.01 99 1018.0
20260504210054 54 0 0.0 0.0 0.00 0.01 0.01 99 1017.6
20260504203053 54 0 0.0 0.0 0.00 0.02 0.01 98 1017.3
20260504200053 54 0 0.0 0.0 0.00 0.02 0.01 98 1017.4
20260504193053 55 0 0.0 0.0 0.01 0.02 0.01 98 1016.9
20260504190054 56 0 0.0 0.0 0.01 0.02 0.01 99 1016.6
20260504183053 56 0 0.0 0.0 0.00 0.01 0.00 98 1016.6
20260504180053 57 0 0.0 0.0 0.00 0.01 0.00 98 1016.6
20260504173053 57 0 0.0 0.0 0.00 0.01 0.00 98 1016.4